When you browse on this site, cookies collect data to enhance your experience and personalize the content and advertising you see.
Visit our Privacy Policy to learn more. By continuing to use the site, you agree to this use of cookies and data.
EN

Hourly Weather Obock

Today, 11 July, Saturday

Time Temperature Precipitation Wind Pressure Humidity
00:00 +38°C° 0 mm 9 mps 749 mmHg 30%
01:00 +38°C° 0 mm 7 mps 748 mmHg 33%
02:00 +38°C° 0 mm 6 mps 748 mmHg 35%
03:00 +36°C° 0 mm 4 mps 748 mmHg 34%
04:00 +36°C° 0 mm 3 mps 748 mmHg 34%
05:00 +36°C° 0 mm 3 mps 749 mmHg 34%
06:00 +35°C° 0 mm 2 mps 749 mmHg 34%
07:00 +38°C° 0 mm 4 mps 749 mmHg 29%
08:00 +41°C° 0 mm 5 mps 749 mmHg 24%
09:00 +44°C° 0 mm 7 mps 750 mmHg 19%
10:00 +45°C° 0 mm 7 mps 749 mmHg 18%
11:00 +47°C° 0 mm 7 mps 749 mmHg 17%
12:00 +49°C° 0 mm 8 mps 749 mmHg 16%
13:00 +49°C° 0 mm 9 mps 748 mmHg 16%
14:00 +49°C° 0 mm 10 mps 747 mmHg 15%
15:00 +49°C° 0 mm 11 mps 747 mmHg 15%
16:00 +48°C° 0 mm 12 mps 747 mmHg 17%
17:00 +46°C° 0 mm 13 mps 747 mmHg 19%
18:00 +45°C° 0 mm 14 mps 747 mmHg 21%
19:00 +43°C° 0 mm 13 mps 747 mmHg 22%
20:00 +42°C° 0 mm 12 mps 747 mmHg 24%
21:00 +41°C° 0 mm 12 mps 747 mmHg 25%
22:00 +41°C° 0 mm 11 mps 747 mmHg 26%
23:00 +41°C° 0 mm 11 mps 747 mmHg 26%

Tomorrow, 12 July, Sunday

Time Temperature Precipitation Wind Pressure Humidity
00:00 +40°C° 0 mm 10 mps 747 mmHg 27%
01:00 +39°C° 0 mm 9 mps 747 mmHg 29%
02:00 +39°C° 0 mm 7 mps 746 mmHg 31%
03:00 +37°C° 0 mm 5 mps 746 mmHg 33%
04:00 +37°C° 0 mm 4 mps 747 mmHg 31%
05:00 +37°C° 0 mm 3 mps 747 mmHg 30%
06:00 +36°C° 0 mm 2 mps 748 mmHg 29%
07:00 +38°C° 0 mm 3 mps 748 mmHg 25%
08:00 +41°C° 0 mm 4 mps 748 mmHg 22%
09:00 +43°C° 0 mm 4 mps 748 mmHg 18%
10:00 +45°C° 0 mm 5 mps 748 mmHg 17%
11:00 +47°C° 0 mm 6 mps 748 mmHg 16%
12:00 +49°C° 0 mm 7 mps 748 mmHg 16%
13:00 +49°C° 0 mm 8 mps 747 mmHg 15%
14:00 +49°C° 0 mm 8 mps 747 mmHg 14%
15:00 +50°C° 0 mm 9 mps 746 mmHg 13%
16:00 +49°C° 0 mm 9 mps 746 mmHg 14%
17:00 +48°C° 0 mm 9 mps 746 mmHg 14%
18:00 +45°C° 0 mm 9 mps 745 mmHg 14%
19:00 +44°C° 0 mm 8 mps 746 mmHg 16%
20:00 +43°C° 0 mm 8 mps 746 mmHg 18%
21:00 +41°C° 0 mm 7 mps 747 mmHg 20%
22:00 +41°C° 0 mm 6 mps 747 mmHg 22%
23:00 +40°C° 0 mm 5 mps 747 mmHg 24%

Day after tomorrow, 13 July, Monday

Time Temperature Precipitation Wind Pressure Humidity
00:00 +40°C° 0 mm 5 mps 747 mmHg 26%
01:00 +38°C° 0 mm 3 mps 747 mmHg 29%
02:00 +37°C° 0 mm 2 mps 746 mmHg 32%
03:00 +36°C° 0 mm 1 mps 746 mmHg 35%
04:00 +36°C° 0 mm 2 mps 746 mmHg 34%
05:00 +36°C° 0 mm 2 mps 747 mmHg 33%
06:00 +35°C° 0 mm 2 mps 747 mmHg 33%
07:00 +37°C° 0 mm 3 mps 748 mmHg 31%
08:00 +38°C° 0 mm 3 mps 748 mmHg 30%
09:00 +41°C° 0 mm 4 mps 748 mmHg 28%
10:00 +42°C° 0 mm 4 mps 748 mmHg 27%
11:00 +43°C° 0 mm 5 mps 748 mmHg 26%
12:00 +45°C° 0 mm 5 mps 747 mmHg 25%
13:00 +46°C° 0 mm 5 mps 747 mmHg 24%
14:00 +47°C° 0 mm 6 mps 746 mmHg 22%
15:00 +48°C° 0 mm 6 mps 745 mmHg 20%
16:00 +47°C° 0 mm 7 mps 745 mmHg 21%
17:00 +46°C° 0 mm 8 mps 745 mmHg 22%
18:00 +45°C° 0 mm 9 mps 745 mmHg 23%
19:00 +43°C° 0 mm 8 mps 746 mmHg 26%
20:00 +41°C° 0 mm 7 mps 746 mmHg 29%
21:00 +39°C° 0 mm 7 mps 747 mmHg 33%
22:00 +39°C° 0 mm 6 mps 747 mmHg 35%
23:00 +37°C° 0 mm 5 mps 747 mmHg 38%

14 July, Tuesday

Time Temperature Precipitation Wind Pressure Humidity
00:00 +37°C° 0 mm 4 mps 748 mmHg 40%
01:00 +37°C° 0 mm 3 mps 747 mmHg 38%
02:00 +37°C° 0 mm 2 mps 747 mmHg 36%
03:00 +36°C° 0 mm 1 mps 747 mmHg 35%
04:00 +36°C° 0 mm 2 mps 747 mmHg 34%
05:00 +36°C° 0 mm 3 mps 748 mmHg 34%
06:00 +36°C° 0 mm 4 mps 749 mmHg 34%
07:00 +38°C° 0 mm 4 mps 749 mmHg 31%
08:00 +40°C° 0 mm 4 mps 749 mmHg 27%
09:00 +42°C° 0 mm 5 mps 750 mmHg 24%
10:00 +43°C° 0 mm 4 mps 749 mmHg 23%
11:00 +44°C° 0 mm 3 mps 749 mmHg 23%
12:00 +44°C° 0 mm 3 mps 748 mmHg 22%
13:00 +45°C° 0 mm 4 mps 748 mmHg 21%
14:00 +45°C° 0 mm 4 mps 747 mmHg 21%
15:00 +46°C° 0 mm 5 mps 746 mmHg 20%
16:00 +46°C° 0 mm 6 mps 746 mmHg 20%
17:00 +46°C° 0 mm 7 mps 746 mmHg 20%
18:00 +45°C° 0 mm 8 mps 746 mmHg 20%
19:00 +44°C° 0 mm 8 mps 747 mmHg 22%
20:00 +43°C° 0 mm 7 mps 747 mmHg 24%
21:00 +41°C° 0 mm 7 mps 748 mmHg 26%
22:00 +41°C° 0 mm 6 mps 748 mmHg 30%
23:00 +40°C° 0 mm 5 mps 748 mmHg 34%

15 July, Wednesday

Time Temperature Precipitation Wind Pressure Humidity
00:00 +38°C° 0 mm 4 mps 748 mmHg 38%
01:00 +38°C° 0 mm 4 mps 748 mmHg 38%
02:00 +37°C° 0 mm 4 mps 748 mmHg 39%
03:00 +37°C° 0 mm 4 mps 747 mmHg 39%
04:00 +37°C° 0 mm 3 mps 748 mmHg 38%
05:00 +36°C° 0 mm 3 mps 748 mmHg 38%
06:00 +36°C° 0 mm 2 mps 749 mmHg 37%
07:00 +38°C° 0 mm 3 mps 749 mmHg 32%
08:00 +40°C° 0 mm 3 mps 750 mmHg 26%
09:00 +43°C° 0 mm 4 mps 750 mmHg 21%
10:00 +44°C° 0 mm 4 mps 750 mmHg 20%
11:00 +45°C° 0 mm 4 mps 749 mmHg 20%
12:00 +46°C° 0 mm 5 mps 749 mmHg 20%
13:00 +47°C° 0 mm 5 mps 748 mmHg 19%
14:00 +47°C° 0 mm 5 mps 747 mmHg 19%
15:00 +48°C° 0 mm 5 mps 747 mmHg 19%
16:00 +47°C° 0 mm 6 mps 747 mmHg 20%
17:00 +46°C° 0 mm 8 mps 747 mmHg 21%
18:00 +45°C° 0 mm 9 mps 747 mmHg 22%
19:00 +44°C° 0 mm 8 mps 747 mmHg 24%
20:00 +43°C° 0 mm 8 mps 748 mmHg 27%
21:00 +43°C° 0 mm 7 mps 749 mmHg 29%
22:00 +41°C° 0 mm 7 mps 748 mmHg 30%
23:00 +41°C° 0 mm 6 mps 748 mmHg 31%

16 July, Thursday

Time Temperature Precipitation Wind Pressure Humidity
00:00 +40°C° 0 mm 6 mps 748 mmHg 31%
01:00 +40°C° 0 mm 5 mps 748 mmHg 31%
02:00 +40°C° 0 mm 5 mps 748 mmHg 32%
03:00 +40°C° 0 mm 4 mps 748 mmHg 32%
04:00 +40°C° 0 mm 4 mps 748 mmHg 32%
05:00 +38°C° 0 mm 3 mps 748 mmHg 33%
06:00 +38°C° 0 mm 3 mps 749 mmHg 34%
07:00 +38°C° 0 mm 4 mps 749 mmHg 37%
08:00 +39°C° 0 mm 5 mps 750 mmHg 39%
09:00 +39°C° 0 mm 5 mps 750 mmHg 42%
10:00 +40°C° 0 mm 5 mps 750 mmHg 39%
11:00 +40°C° 0 mm 4 mps 749 mmHg 36%
12:00 +41°C° 0 mm 4 mps 749 mmHg 33%
13:00 +42°C° 0 mm 5 mps 748 mmHg 29%
14:00 +43°C° 0 mm 5 mps 748 mmHg 26%
15:00 +44°C° 0 mm 6 mps 747 mmHg 22%
16:00 +44°C° 0 mm 6 mps 747 mmHg 22%
17:00 +43°C° 0 mm 5 mps 747 mmHg 22%
18:00 +43°C° 0 mm 4 mps 747 mmHg 21%
19:00 +42°C° 0 mm 4 mps 747 mmHg 26%
20:00 +39°C° 0 mm 3 mps 748 mmHg 30%
21:00 +38°C° 0 mm 2 mps 748 mmHg 34%
22:00 +37°C° 0 mm 3 mps 748 mmHg 36%
23:00 +37°C° 0 mm 3 mps 748 mmHg 38%
Show more